Regional Weather Roundup
Issued by NWS

Home | Current Version | Previous Version | Graphics & Text | Print | Product List | Glossary On
Versions: 1 2 3 4 5 6 7 8 9 10 11 12 13 14 15 16 17 18 19 20 21 22 23 24 25 26 27 28 29 30 31 32 33 34 35 36 37 38 39 40 41 42 43 44 45 46 47 48 49 50
000
ASUS43 KFSD 221310
RWRSD

WEATHER ROUNDUP FOR SOUTH DAKOTA
NATIONAL WEATHER SERVICE SIOUX FALLS SD
800 AM CDT FRI AUG 22 2014

NOTE: "FAIR" INDICATES FEW OR NO CLOUDS BELOW 12,000 FEET WITH NO
SIGNIFICANT WEATHER AND/OR OBSTRUCTIONS TO VISIBILITY.


SDZ001>005-009-010-012>017-221400-
NORTHWEST AND NORTH CENTRAL SOUTH DAKOTA

CITY           SKY/WX    TMP DP  RH WIND       PRES   REMARKS
BUFFALO          N/A     60  59  96 CALM      30.02R
FAITH            N/A     62  60  93 E13       30.03S
MOBRIDGE       LGT RAIN  64  63  96 N8        30.01S
$$

SDZ012>016-024>037-041>051-057-063-072>074-221400-
SOUTHWEST AND SOUTH CENTRAL SOUTH DAKOTA

CITY           SKY/WX    TMP DP  RH WIND       PRES   REMARKS
RAPID CTY ARPT CLOUDY    62  61  96 NW8       30.08R
PIERRE         PTSUNNY   66  65  96 NE7       29.98R
CUSTER         CLEAR     52  50  93 NW5       30.16R
ELLSWORTH AFB  CLOUDY    62  62 100 N8        30.08R FOG
PHILIP         CLOUDY    65  63  93 NE7       30.00R
PINE RIDGE     CLOUDY    60  59  96 CALM      30.07R
WINNER         FAIR      66  63  90 N7        30.01R
$$

SDZ004>011-016>023-039-040-221400-
NORTHEAST SOUTH DAKOTA

CITY           SKY/WX    TMP DP  RH WIND       PRES   REMARKS
ABERDEEN       PTSUNNY   65  65 100 N8        29.98S
WATERTOWN      FOG       64  63  96 CALM      29.98F VSB 3/4
SISSETON         N/A     68  68 100 NW9       29.96S
$$

SDZ017-020-022-023-036>040-048>070-221400-
SOUTHEAST SOUTH DAKOTA

CITY           SKY/WX    TMP DP  RH WIND       PRES   REMARKS
SIOUX FALLS    MOSUNNY   68  66  93 NE3       29.94S
HURON          SUNNY     62  62 100 NW3       29.97S FOG
CHAMBERLAIN    PTSUNNY   68  65  90 N5        30.00R
MITCHELL       FOG       65  65 100 N6        29.97R VSB<1/4
YANKTON        SUNNY     66  66 100 N3        29.93R
$$

ABBREVIATIONS USED IN REMARKS
   TC - TEMPERATURE IN CELSIUS
  WCI - WIND CHILL INDEX
   HX - HEAT INDEX
  VSB - VISIBILITY



USA.gov is the U.S. government's official web portal to all federal, state and local government web resources and services.